This demonstration page uses our WeatherBlox Daily Observations layout. Learn more.

Left ArrowRight Arrow

38.88101, -77.10428

Hourly Observations for October 16, 2022

Temp ( °F °C ) Dew Point ( °F °C ) Humidity (%) Winds ( mph kmh ) Pressure ( in mb ) Visibility ( mi km ) Precip ( " mm )
12:52 am 00:52 Mostly Clear 57 13.9 50 10 77 77 WSW 5 7 29.98 1015 10 16 0.00 0.00
1:52 am 01:52 Mostly Clear 57 13.9 51 10.6 80 80 Calm 29.98 1015 10 16 0.00 0.00
2:52 am 02:52 Mostly Clear 55 12.8 52 11.1 89 89 N 5 7 29.98 1015 10 16 0.00 0.00
3:52 am 03:52 Clear 55 12.8 51 10.6 86 86 N 3 6 29.99 1016 10 16 0.00 0.00
4:52 am 04:52 Clear 56 13.3 50 10 80 80 N 5 7 29.99 1016 10 16 0.00 0.00
5:52 am 05:52 Partly Cloudy 57 13.9 49 9.4 74 74 Calm 30.00 1016 10 16 0.00 0.00
6:52 am 06:52 Mostly Cloudy 58 14.4 48 8.9 70 70 N 3 6 30.01 1016 10 16 0.00 0.00
7:52 am 07:52 Cloudy 55 12.8 49 9.4 80 80 N 5 7 30.01 1016 10 16 0.00 0.00
8:52 am 08:52 Sunny 58 14.4 49 9.4 72 72 N 3 6 30.02 1017 10 16 0.00 0.00
9:07 am 09:07 Mostly Cloudy 58 14.4 50 10 75 75 NNE 3 6 30.02 1017 10 16 0.00 0.00
9:52 am 09:52 Mostly Cloudy 60 15.6 50 10 69 69 Calm 30.01 1016 10 16 0.00 0.00
10:52 am 10:52 Mostly Cloudy 63 17.2 45 7.2 52 52 E 3 6 30.02 1017 10 16 0.00 0.00
11:52 am 11:52 Mostly Cloudy 65 18.3 43 6.1 45 45 E 3 6 30.02 1017 10 16 0.00 0.00
12:52 pm 12:52 Partly Cloudy 67 19.4 41 5 39 39 ESE 3 6 29.99 1016 10 16 0.00 0.00
1:52 pm 13:52 Partly Cloudy 68 20 44 6.7 42 42 S 7 11 29.96 1015 10 16 0.00 0.00
2:52 pm 14:52 Partly Cloudy 70 21.1 45 7.2 41 41 S 8 13 29.94 1014 10 16 0.00 0.00
3:52 pm 15:52 Mostly Cloudy 68 20 50 10 53 53 S 9 15 29.93 1013 10 16 0.00 0.00
4:52 pm 16:52 Mostly Cloudy 67 19.4 50 10 55 55 SSE 7 11 29.91 1013 10 16 0.00 0.00
5:52 pm 17:52 Cloudy 66 18.9 53 11.7 63 63 SE 6 9 29.88 1012 10 16 0.00 0.00
6:52 pm 18:52 Cloudy 65 18.3 49 9.4 56 56 SSE 6 9 29.88 1012 10 16 0.00 0.00
7:52 pm 19:52 Cloudy 64 17.8 51 10.6 63 63 SSE 6 9 29.89 1012 10 16 0.00 0.00
8:52 pm 20:52 Cloudy with Light Rain 64 17.8 51 10.6 63 63 S 8 13 29.85 1011 10 16 0.01 0.13
9:52 pm 21:52 Cloudy 63 17.2 54 12.2 72 72 S 8 13 29.87 1012 10 16 0.01 0.13
10:45 pm 22:45 Cloudy with Light Rain 61 16.1 56 13.3 83 83 SW 8 13 29.88 1012 8 13 0.02 0.51
10:52 pm 22:52 Cloudy with Light Rain 60 15.6 56 13.3 86 86 SW 7 11 29.87 1012 10 16 0.02 0.51
10:57 pm 22:57 Cloudy with Light Rain 60 15.6 56 13.3 86 86 SSW 5 7 29.87 1012 10 16 0.01 0.13
11:52 pm 23:52 Cloudy 60 15.6 56 13.3 86 86 SW 8 13 29.86 1011 10 16 0.01 0.13

Powered by AerisWeather